User: anonymous   Login
Location: Unspecified
(0.0000°N, 0.0000°E)
Time: 12:11:41
(UTC+00:00)
Language:

Apollo-Soyuz Test Project - Orbit

View from above orbital plane
View from above orbital plane
View from above satellite
View from above satellite

Ground track
Ground track

The orbit data is extracted from the following two-line orbital elements,

1 08032U 75066  A 75205.07678313  .00106223 +00000-0 +00000-0 0  9995
2 08032 051.7676 081.2970 0015855 228.6529 131.3086 16.23033118001340
Epoch (UTC): 24 July 1975 01:50:34
Eccentricity: 0.0015855
inclination: 51.7676°
perigee height: 201 km
apogee height: 222 km
right ascension of ascending node: 81.2970°
argument of perigee: 228.6529°
revolutions per day: 16.23033118
mean anomaly at epoch: 131.3086°
orbit number at epoch: 134

The dashed part of the orbit path shows where the satellite is in the earth's shadow,  

DLR